User: anonymous
Location: St Andrew
(49.4460°N, 2.5750°W)
Time: 02:55:45
(UTC+01:00)
Language:

Iridium 66 - Orbit

View from above orbital plane
View from above orbital plane
View from above satellite
View from above satellite

Ground track
Ground track

The orbit data is extracted from the following two-line orbital elements,

1 25289U 98021E   14233.28277875  .00000214  00000-0  69171-4 0  8236
2 25289 086.3954 294.6907 0002416 111.1872 316.5077 14.34218305857251
Epoch (UTC): 21 August 2014 06:47:12
Eccentricity: 0.0002416
inclination: 86.3954°
perigee height: 776 km
apogee height: 779 km
right ascension of ascending node: 294.6907°
argument of perigee: 111.1872°
revolutions per day: 14.34218305
mean anomaly at epoch: 316.5077°
orbit number at epoch: 85725

The dashed part of the orbit path shows where the satellite is in the earth's shadow,  

DLR